Location: London
(51.5074°N, 0.1278°W)
Time: 07:08:58
(UTC+00:00)

TIGRISAT - Pass Details

Date: 08 October 2020
Orbit: 606 x 688 km, 97.7° (Epoch: 30 October)

Event Time Altitude Azimuth Distance (km) Brightness Sun altitude
Rises 06:18:05 0° 109° (ESE) 2,889 ? -9.4°
Reaches altitude 10° 06:21:17 10° 83° (E) 2,003 ? -8.9°
Maximum altitude 06:23:22 13° 54° (NE) 1,802 ? -8.6°
Drops below altitude 10° 06:25:27 10° 26° (NNE) 2,032 ? -8.3°
Sets 06:28:44 0° 360° (N) 2,966 ? -7.7°
